Weather History for Bentonville, AR

Change the Weather History Date:

Saturday, September 22, 2012

  Actual Average Record
Temperature  
Mean Temperature - -  
Max Temperature - 76 °F 94 °F (1948)
Min Temperature - 53 °F 32 °F (1982)
Moisture  
Dew Point -    
Average Humidity    
Maximum Humidity    
Minimum Humidity    
Precipitation  
Precipitation 0.00 in - - ()
Sea Level Pressure  
Sea Level Pressure 30.10 in    
Wind  
Wind Speed 5 mph (NNE)    
Max Wind Speed 13 mph    
Max Gust Speed -    
Visibility 10 miles    
Events      
Averages and records for this station are not official NWS values.
T = Trace of Precipitation, MM = Missing Value Source: NWS Daily Summary

Daily Weather History Graph

Daily Weather History Graph

Search for Another Location

Airport:

Trip Planner

Search our weather history database for the weather conditions in past years. The results will help you decide how hot, cold, wet, or windy it might be!

Date:

Astronomy

Sep. 22, 2012 Rise Set
Actual Time 7:05 AM CDT 7:12 PM CDT
Civil Twilight 6:39 AM CDT 7:38 PM CDT
Nautical Twilight 6:09 AM CDT 8:08 PM CDT
Astronomical Twilight 5:39 AM CDT 8:38 PM CDT
Moon 2:13 PM CDT (9/22) No Moon Set
Length of Visible Light 12h 59m
Length of Day
12h 07m
Waxing Crescent, 49% of the Moon is Illuminated
Sep 22
Waxing Crescent
Sep 22
First Quarter
Sep 29
Full
Oct 8
Last Quarter
Oct 15
New

Hourly Weather History & Observations

Time (CDT) Temp. Dew Point Humidity Pressure Visibility Wind Dir Wind Speed Gust Speed Precip Events Conditions
12:15 AM - - N/A% 29.98 in 10.0 mi North 6.9 mph - N/A   Clear
12:35 AM - - N/A% 29.98 in 10.0 mi NNE 6.9 mph - N/A   Clear
12:55 AM - - N/A% 29.98 in 10.0 mi North 4.6 mph - N/A   Clear
1:15 AM - - N/A% 29.99 in 10.0 mi Calm Calm - N/A   Clear
1:35 AM - - N/A% 30.00 in 10.0 mi SE 3.5 mph - N/A   Clear
1:55 AM - - N/A% 30.00 in 10.0 mi Calm Calm - N/A   Clear
2:15 AM - - N/A% 30.01 in 10.0 mi SSE 3.5 mph - N/A   Clear
2:35 AM - - N/A% 30.01 in 10.0 mi East 3.5 mph - N/A   Clear
2:55 AM - - N/A% 30.00 in 10.0 mi East 5.8 mph - N/A   Clear
3:15 AM - - N/A% 30.01 in 10.0 mi Calm Calm - N/A   Clear
3:35 AM - - N/A% 30.01 in 10.0 mi Calm Calm - N/A   Clear
3:55 AM - - N/A% 30.01 in 10.0 mi Calm Calm - N/A   Clear
4:15 AM - - N/A% 30.02 in 10.0 mi South 3.5 mph - N/A   Clear
4:35 AM - - N/A% 30.02 in 10.0 mi Calm Calm - N/A   Clear
4:55 AM - - N/A% 30.02 in 10.0 mi Calm Calm - N/A   Clear
5:15 AM - - N/A% 30.03 in 10.0 mi Calm Calm - N/A   Clear
5:35 AM - - N/A% 30.03 in 10.0 mi Calm Calm - N/A   Clear
5:55 AM - - N/A% 30.03 in 10.0 mi Calm Calm - N/A   Clear
6:15 AM - - N/A% 30.04 in 10.0 mi South 3.5 mph - N/A   Clear
6:35 AM - - N/A% 30.04 in 10.0 mi SSE 3.5 mph - N/A   Clear
6:55 AM - - N/A% 30.05 in 10.0 mi Calm Calm - N/A   Clear
7:15 AM - - N/A% 30.06 in 10.0 mi Calm Calm - N/A   Clear
7:35 AM - - N/A% 30.06 in 10.0 mi Calm Calm - N/A   Clear
7:55 AM - - N/A% 30.07 in 10.0 mi Calm Calm - N/A   Clear
8:15 AM - - N/A% 30.08 in 10.0 mi NNE 4.6 mph - N/A   Clear
8:35 AM - - N/A% 30.08 in 10.0 mi East 3.5 mph - N/A   Clear
8:55 AM - - N/A% 30.09 in 10.0 mi Calm Calm - N/A   Clear
9:15 AM - - N/A% 30.10 in 10.0 mi Calm Calm - N/A   Clear
9:55 AM - - N/A% 30.11 in 10.0 mi Calm Calm - N/A   Clear
10:15 AM - - N/A% 30.12 in 10.0 mi Calm Calm - N/A   Clear
10:35 AM - - N/A% 30.12 in 10.0 mi Calm Calm - N/A   Clear
10:55 AM - - N/A% 30.13 in 10.0 mi Calm Calm - N/A   Clear
11:15 AM - - N/A% 30.13 in 10.0 mi North 5.8 mph - N/A   Clear
11:35 AM - - N/A% 30.14 in 10.0 mi NNW 4.6 mph - N/A   Clear
11:55 AM - - N/A% 30.14 in 10.0 mi North 9.2 mph - N/A   Clear
12:15 PM - - N/A% 30.14 in 10.0 mi North 10.4 mph - N/A   Clear
12:35 PM - - N/A% 30.14 in 10.0 mi North 6.9 mph - N/A   Clear
1:15 PM - - N/A% 30.13 in 10.0 mi NNW 10.4 mph - N/A   Clear
1:35 PM - - N/A% 30.13 in 10.0 mi NW 5.8 mph - N/A   Clear
1:55 PM - - N/A% 30.13 in 10.0 mi NNW 6.9 mph - N/A   Clear
2:15 PM - - N/A% 30.12 in 10.0 mi North 11.5 mph - N/A   Clear
2:35 PM - - N/A% 30.12 in 10.0 mi NW 8.1 mph - N/A   Clear
2:55 PM - - N/A% 30.12 in 10.0 mi North 12.7 mph - N/A   Clear
3:15 PM - - N/A% 30.12 in 10.0 mi North 11.5 mph - N/A   Clear
3:35 PM - - N/A% 30.12 in 10.0 mi NNW 9.2 mph - N/A   Clear
3:55 PM - - N/A% 30.12 in 10.0 mi NNW 8.1 mph - N/A   Clear
4:15 PM - - N/A% 30.12 in 10.0 mi NNW 9.2 mph - N/A   Clear
4:35 PM - - N/A% 30.13 in 10.0 mi North 10.4 mph - N/A   Clear
4:55 PM - - N/A% 30.13 in 10.0 mi NNE 9.2 mph - N/A   Clear
5:15 PM - - N/A% 30.13 in 10.0 mi NNE 11.5 mph - N/A   Clear
5:35 PM - - N/A% 30.14 in 10.0 mi North 12.7 mph - N/A   Clear
5:55 PM - - N/A% 30.14 in 10.0 mi North 10.4 mph - N/A   Clear
6:15 PM - - N/A% 30.14 in 10.0 mi NNE 11.5 mph - N/A   Clear
6:35 PM - - N/A% 30.14 in 10.0 mi North 12.7 mph - N/A   Clear
6:55 PM - - N/A% 30.14 in 10.0 mi North 9.2 mph - N/A   Clear
7:15 PM - - N/A% 30.15 in 10.0 mi North 9.2 mph - N/A   Clear
7:35 PM - - N/A% 30.16 in 10.0 mi North 8.1 mph - N/A   Clear
7:55 PM - - N/A% 30.16 in 10.0 mi NNE 6.9 mph - N/A   Clear
8:15 PM - - N/A% 30.16 in 10.0 mi NNE 8.1 mph - N/A   Clear
8:35 PM - - N/A% 30.18 in 10.0 mi NNE 6.9 mph - N/A   Clear
8:55 PM - - N/A% 30.18 in 10.0 mi North 5.8 mph - N/A   Clear
9:15 PM - - N/A% 30.18 in 10.0 mi NNE 6.9 mph - N/A   Clear
9:35 PM - - N/A% 30.18 in 10.0 mi NNE 8.1 mph - N/A   Clear
9:55 PM - - N/A% 30.19 in 10.0 mi NNE 6.9 mph - N/A   Clear
10:15 PM - - N/A% 30.19 in 10.0 mi NNE 6.9 mph - N/A   Clear
10:35 PM - - N/A% 30.19 in 10.0 mi NNE 6.9 mph - N/A   Clear
10:55 PM - - N/A% 30.20 in 10.0 mi NE 8.1 mph - N/A   Clear
11:15 PM - - N/A% 30.20 in 10.0 mi NE 9.2 mph - N/A   Clear
11:35 PM - - N/A% 30.20 in 10.0 mi NE 10.4 mph - N/A   Clear
11:55 PM - - N/A% 30.20 in 10.0 mi ENE 5.8 mph - N/A   Clear